EHI
0 0 0 0 0 0 0 0 0 0 0 0 0 0 0 0 0 1 1 1 1 1 0 0 0 0 0 0 0 0 0 0 1 1 1 0 0 0 0 0 0 0 0
0 0 0 0 0 0 0 0 0 0 0 0 0 0 0 0 0 0 0 0 0 0 0 0 0 0 0 0 0 0 0 0 0 0 0 0 0 0 0 0 0 0 0
0 0 0 0 0 0 0 0 0 0 0 0 0 0 0 0 0 0 0 0 0 0 0 0 0 0 0 0 0 0 0 0 0 0 0 0 0 0 0 0 0 0 0
0 0 0 0 0 0 0 0 0 0 0 0 0 0 0 0 0 0 0 0 0 0 0 0 0 0 0 0 0 0 0 0 0 0 0 0 0 0 0 0 0 0 0
0 0 0 0 0 0 0 0 0 0 0 0 0 0 0 0 0 0 0 0 0 0 0 0 0 0 0 0 0 0 0 0 0 0 0 0 0 0 0 0 0 0 0
0 0 0 0 0 0 0 0 0 0 0 0 0 0 0 0 0 0 0 0 0 0 0 0 0 0 0 0 0 0 0 0 0 0 0 0 0 0 0 0 0 0 0
0 0 0 0 0 0 0 0 0 0 0 0 0 0 0 0 0 0 0 0 0 0 0 0 0 0 0 0 0 0 0 0 0 0 0 1 0 0 0 0 0 0 0
0 0 0 0 0 0 0 0 0 0 0 0 0 0 0 0 0 0 0 0 0 0 0 0 0 0 0 0 0 0 0 0 0 0 0 0 0 0 0 0 0 0 0
0 0 0 0 0 0 0 0 0 0 0 0 0 0 0 0 0 0 0 0 0 0 0 0 0 0 0 0 0 0 0 0 0 0 0 0 0 0 0 0 0 0 0
0 0 0 0 0 0 0 0 0 0 0 0 0 0 0 0 0 0 0 0 0 0 0 0 0 0 0 0 0 0 0 0 0 0 0 0 0 0 0 0 0 0 0
0 0 0 0 0 0 0 0 0 0 0 0 0 0 0 0 0 0 0 0 0 0 0 0 0 0 0 0 1 0 0 0 0 0 0 0 0 0 0 0 0 0 0
0 0 0 0 0 0 0 0 0 0 0 0 0 0 0 0 0 0 0 0 0 0 0 0 0 0 0 0 0 0 0 0 0 0 0 0 0 0 0 0 0 0 0
0 0 0 0 0 0 0 0 0 0 0 0 0 0 0 0 0 0 0 0 0 0 0 0 0 0 0 0 0 0 0 0 0 0 0 0 0 0 0 0 0 0 0
0 0 0 0 0 0 0 0 0 0 0 0 0 0 0 0 0 0 0 0 0 0 0 0 0 0 0 0 0 0 0 0 0 0 0 0 0 0 0 0 0 0 0
0 0 0 0 0 0 0 0 0 0 0 0 0 0 0 0 0 0 0 0 0 0 0 0 0 0 0 0 0 0 0 0 0 0 0 0 0 0 0 0 0 0 0
0 0 0 0 0 0 0 0 0 0 0 0 0 0 0 0 0 0 0 0 0 0 0 0 0 0 0 0 0 0 0 0 0 0 0 0 0 0 0 0 0 0 0
0 0 0 0 0 0 0 0 0 0 0 0 0 0 0 0 0 0 0 0 0 0 0 0 0 0 0 0 0 0 0 0 0 0 0 0 0 0 0 0 0 0 0
0 0 0 0 0 0 0 0 0 0 0 0 0 0 0 0 0 0 0 0 0 0 0 0 0 0 0 0 0 0 0 0 0 0 0 0 0 0 0 0 0 0 0
0 0 0 0 0 0 0 0 0 0 0 0 0 0 0 0 0 0 0 0 0 0 0 0 0 0 0 0 0 0 0 0 0 0 0 0 0 0 0 0 0 0 0
0 0 0 0 0 0 0 0 0 0 0 0 0 0 0 0 0 0 0 0 0 0 0 0 0 0 0 0 0 0 0 0 0 0 0 0 0 0 0 0 0 0 0
0 0 0 0 0 0 0 0 0 0 0 0 0 0 0 0 0 0 0 0 0 0 0 0 0 0 0 0 0 0 0 0 0 0 0 0 0 0 0 0 0 0 0
0 0 0 0 0 0 0 0 0 0 0 0 0 0 0 0 0 0 0 0 0 0 0 0 0 0 0 0 0 0 0 0 0 0 0 0 0 0 0 0 0 0 0
0 0 0 0 0 0 0 0 0 0 0 0 0 0 0 0 0 0 0 0 0 0 0 0 0 0 0 0 0 0 0 0 0 0 0 0 0 0 0 0 0 0 0
0 0 0 0 0 0 0 0 0 0 0 0 0 0 0 0 0 0 0 0 0 0 0 0 0 0 0 0 0 0 0 0 0 0 0 0 0 0 0 0 0 0 0
0 0 0 0 0 0 0 0 0 0 0 0 0 0 0 0 0 0 0 0 0 0 0 0 0 0 0 0 0 0 0 0 0 0 0 0 0 0 0 0 0 0 0
0 0 0 0 0 0 0 0 0 0 0 0 0 0 0 0 0 0 0 0 0 0 0 0 0 0 0 0 0 0 0 0 0 0 0 0 0 0 0 0 0 0 0
Wind_Speed
4 4 3 3 4 4 3 4 4 4 4 5 4 5 5 4 4 4 2 4 2 3 3 3 4 4 4 5 5 6 6 6 7 7 7 7 7 8 9 10 10 10 11
4 4 4 3 4 4 4 5 4 4 4 3 4 4 4 4 4 4 3 4 4 3 2 2 3 4 5 5 5 6 7 7 7 7 7 8 8 8 9 10 10 10 10
4 4 4 4 4 4 5 4 5 4 4 3 4 4 3 4 4 4 3 3 4 5 4 2 2 4 4 5 6 6 7 7 7 8 8 8 8 8 9 9 10 10 10
5 4 4 4 4 4 4 4 4 4 3 3 3 2 2 2 4 4 3 3 2 3 5 4 4 5 5 6 6 7 7 8 7 8 8 8 8 8 8 9 10 10 10
6 4 4 4 5 4 4 4 3 4 3 2 2 2 2 2 2 3 3 3 3 3 2 5 5 6 6 5 6 7 7 8 8 8 9 8 8 8 9 9 9 10 10
5 5 3 5 5 4 4 4 4 3 3 3 3 1 0 1 2 1 2 2 2 3 3 3 4 6 6 5 5 6 7 8 8 8 9 9 9 9 9 9 9 10 10
4 4 4 5 5 4 5 5 4 3 2 2 2 1 2 1 0 0 1 1 2 2 2 2 2 3 5 7 6 6 7 7 8 9 9 9 9 9 9 10 10 10 10
4 4 5 4 4 4 5 5 4 3 2 2 2 2 2 2 1 1 0 0 1 2 2 2 3 3 3 3 5 7 6 6 7 8 9 9 9 10 10 10 10 10 10
4 4 5 5 4 4 4 5 5 4 3 2 2 2 2 1 1 2 1 1 1 1 2 1 2 3 3 3 4 6 6 5 6 7 8 8 9 10 10 10 10 10 10
3 3 4 4 4 4 4 4 4 3 4 2 1 2 2 2 1 1 1 1 1 1 1 2 1 2 3 3 3 4 5 5 5 6 7 7 9 10 10 9 10 10 10
2 3 3 4 4 4 4 4 4 4 3 3 2 2 2 1 2 1 1 2 2 1 1 1 2 1 2 2 2 4 5 4 3 4 5 6 7 8 9 9 10 10 11
2 2 3 3 3 3 4 4 3 3 3 3 2 2 2 2 2 1 0 1 1 1 1 1 1 2 2 2 3 5 4 3 3 3 3 5 6 7 7 7 9 9 10
2 2 2 3 3 3 4 4 3 3 2 2 2 2 2 2 2 1 0 1 1 1 1 1 1 1 2 2 3 4 4 3 3 3 3 4 4 5 6 7 8 8 8
2 2 3 3 3 3 3 3 3 2 2 2 2 2 2 2 2 1 1 1 1 1 2 2 1 1 1 2 2 1 3 4 3 3 4 4 4 5 5 6 7 7 7
3 3 3 3 2 3 3 3 2 2 2 2 2 1 1 1 1 1 1 1 1 2 2 3 2 1 1 2 1 2 2 4 3 3 3 4 4 4 5 5 5 5 5
4 4 4 4 3 3 3 3 3 2 3 1 2 2 2 1 1 1 1 1 2 2 1 2 1 1 0 1 1 1 1 4 4 3 3 4 4 4 5 5 5 5 4
6 5 5 5 4 4 3 3 4 3 3 2 2 2 1 2 1 1 1 1 1 2 1 1 1 1 2 2 1 1 1 2 4 5 4 3 4 4 4 5 5 4 4
6 6 5 6 5 5 4 4 4 4 4 3 2 2 2 1 2 1 1 2 1 2 2 2 2 2 2 1 1 1 1 1 2 5 4 3 3 3 3 4 4 4 4
8 7 7 7 6 6 5 5 5 5 4 3 3 3 2 2 2 2 2 2 2 2 2 2 2 1 1 1 1 1 1 1 1 4 5 5 4 3 3 3 3 4 4
9 8 8 8 7 7 6 6 5 5 5 4 4 4 4 4 3 2 2 3 2 2 2 2 2 2 2 2 2 2 1 1 1 1 2 2 4 5 4 4 3 3 3
10 9 9 9 8 7 6 7 6 6 6 6 5 5 4 2 2 3 2 2 3 3 3 3 2 2 3 3 2 2 2 1 2 1 1 2 3 4 5 6 4 3 3
10 10 10 10 9 7 6 7 8 8 7 7 7 6 5 6 6 7 5 4 4 4 3 3 3 3 3 3 2 2 2 2 2 2 2 2 2 2 1 2 4 4 3
10 11 11 11 11 10 9 10 12 9 9 8 8 7 5 5 6 7 8 8 7 5 5 5 4 4 3 3 4 4 3 3 1 1 2 2 2 1 2 4 5 3 3
9 10 11 11 11 11 11 12 12 12 10 10 9 9 8 8 8 7 7 7 7 6 6 6 5 3 2 2 4 3 2 2 2 1 2 2 2 2 2 4 6 5 4
9 9 10 11 12 13 13 14 13 11 10 12 11 10 10 10 7 7 8 8 7 6 4 2 2 1 2 1 1 3 4 4 3 3 2 2 1 1 2 3 6 6 5
8 9 9 11 12 13 11 14 16 11 11 11 10 10 10 10 9 12 11 9 9 7 7 7 6 6 6 6 6 6 4 4 3 3 3 2 2 2 2 3 3 4 5
Wind_Direction
336 335 329 332 321 325 313 307 301 308 295 286 277 272 269 251 244 244 190 161 226 230 215 215 199 191 193 194 189 187 181 173 165 157 151 149 146 141 134 131 129 126 122
340 333 332 337 334 330 328 310 309 301 285 287 282 275 267 260 245 232 233 177 177 194 186 193 188 183 181 186 193 184 177 172 171 166 160 157 153 150 146 141 137 135 131
344 341 338 340 341 333 323 311 314 299 287 282 269 264 261 265 260 241 231 220 182 164 160 171 184 176 184 189 195 184 177 174 179 173 168 163 158 155 152 151 147 146 141
353 349 342 341 338 329 324 318 307 301 289 284 277 265 254 249 257 257 234 214 203 188 164 157 180 177 187 193 189 183 181 177 183 178 172 168 165 161 159 157 154 152 148
349 353 351 339 337 334 333 322 328 314 306 296 272 254 256 252 256 248 232 212 189 191 178 148 168 175 180 189 183 180 180 178 182 180 176 173 170 168 167 165 163 159 156
350 346 340 345 344 343 341 337 333 312 308 300 278 258 246 247 245 245 245 214 193 179 182 163 171 170 170 178 176 175 172 175 182 183 181 178 176 174 173 172 172 168 166
345 347 334 350 343 349 345 345 332 313 314 315 282 221 176 181 175 135 254 237 177 168 185 170 188 175 166 169 171 174 173 181 186 186 185 183 182 180 179 177 178 179 177
345 339 344 343 352 342 347 350 341 324 328 325 299 267 212 177 171 108 96 208 189 157 172 177 192 176 172 165 152 166 173 182 189 187 188 187 186 184 184 184 184 185 184
340 341 345 343 347 345 353 344 342 338 328 336 348 317 294 261 146 130 94 91 80 124 144 153 177 170 164 164 160 161 167 176 185 189 187 189 189 187 188 192 192 191 191
327 333 332 334 342 349 348 344 357 331 322 331 350 327 322 341 284 162 141 109 83 85 114 129 136 134 148 152 135 127 156 173 185 192 188 188 193 193 192 196 198 196 194
312 319 325 329 337 342 351 349 347 342 335 333 330 320 318 296 283 260 157 144 115 76 64 92 114 105 112 127 141 119 132 148 166 178 182 185 189 195 194 199 201 203 202
294 310 311 315 323 337 345 342 341 344 340 342 327 333 323 314 315 296 188 141 113 83 77 64 73 86 94 101 95 92 111 138 157 156 157 169 178 191 193 201 202 205 206
285 312 300 307 323 336 336 334 325 333 337 332 334 334 328 317 320 307 245 146 135 134 129 110 68 86 96 105 102 102 107 119 141 154 152 158 169 184 194 201 204 205 209
297 310 295 302 310 315 321 332 316 330 333 335 346 335 314 330 320 311 272 206 176 167 171 138 135 126 109 111 92 194 124 122 131 153 163 167 173 183 193 197 200 203 205
270 271 274 273 280 293 309 316 313 325 322 326 335 327 309 335 300 310 283 276 257 196 172 151 147 130 139 105 177 190 155 119 140 153 165 170 168 174 183 189 190 189 192
255 261 259 258 255 261 270 286 294 316 293 308 306 310 318 298 318 277 266 270 285 273 180 140 143 147 150 170 180 198 124 149 156 160 158 161 166 171 174 178 181 185 192
242 243 253 262 264 266 264 256 278 276 283 277 252 273 285 305 275 236 230 234 243 250 203 142 147 163 187 185 161 175 186 195 144 143 150 158 162 170 180 183 181 180 187
249 249 247 255 258 263 264 262 262 261 268 274 264 258 254 237 253 251 240 227 216 243 227 186 177 179 195 180 178 201 208 183 156 131 144 154 158 167 175 181 185 186 194
245 244 238 246 252 254 253 250 249 250 250 252 249 253 257 248 237 213 229 226 212 218 232 216 189 170 205 180 180 201 203 194 187 148 165 170 159 159 157 167 183 193 200
244 247 246 244 247 248 249 248 245 245 246 245 240 241 245 242 243 230 221 218 217 218 217 218 201 191 193 186 214 202 189 177 198 167 160 167 160 171 168 163 173 188 199
246 245 249 248 244 244 246 250 244 242 242 239 236 234 232 247 315 281 269 235 217 224 216 217 212 208 202 197 206 203 207 197 176 184 200 184 182 187 174 169 166 162 172
250 247 245 246 245 240 220 228 252 246 242 240 237 233 217 208 215 222 246 274 285 255 235 222 222 221 221 209 200 221 210 210 188 163 225 184 201 190 182 129 108 129 143
252 248 244 243 242 239 211 212 225 249 248 246 245 234 224 215 212 214 203 212 229 251 269 267 244 231 226 207 207 213 216 230 219 138 234 194 175 167 131 95 109 118 122
254 248 245 242 241 238 213 214 215 233 244 243 240 239 231 222 212 222 216 212 216 210 218 233 245 241 232 209 221 233 219 215 201 179 234 232 179 169 144 122 111 105 104
270 257 249 244 243 241 213 209 212 232 236 238 236 234 234 231 191 201 227 222 218 211 190 231 331 19 64 64 254 213 201 208 207 177 182 234 203 189 171 146 127 128 118
280 273 261 252 248 249 224 205 211 233 236 235 232 230 224 236 194 190 221 224 223 216 202 188 197 199 200 187 209 227 219 224 221 192 162 212 204 205 187 160 158 162 149